カタログに戻る

STARLINK-30333

運用中通信VLEO
NORAD 57702·PAYLOAD·🇺🇸 United States

打ち上げ Aug 27, 2023 から Cape Canaveral Space Force Station

Loading…

次のパス (今後24時間)

TLE

最新Source: CelesTrak SupGP

元期: Sep 14, 2026, 21:05 UTC

1 57702C 23129E   26257.87895833 -.00064660  00000+0 -23423-2 0  2577
2 57702  43.0022 129.1327 0001322 271.4295 339.2966 15.27605948    13

AllMySatでSTARLINK-30333をリアルタイム追跡

Download on the App Store